Wind_Speed
38 39 39 40 40 40 41 42 43 44 45 45 46 48 48 49 50 51 52 52 52 52 52 52 51 51 50 50 49 49 49 49 49 49 49 49 49 48 47 47 46 45 44
38 38 39 40 40 41 42 43 43 43 44 46 47 47 48 49 50 51 52 52 52 53 53 53 52 52 52 52 52 51 50 50 51 51 51 51 51 51 49 49 48 48 47
37 38 38 39 40 41 42 43 44 44 45 46 46 47 49 49 49 50 51 52 53 53 53 53 53 52 53 53 54 54 53 51 51 52 53 53 52 53 52 51 50 50 49
37 38 38 39 40 41 42 44 45 45 45 46 48 47 48 50 50 51 51 51 52 52 52 52 53 53 54 54 54 54 54 53 53 53 54 54 54 55 54 54 52 52 51
37 38 39 40 41 42 43 44 45 46 47 47 48 49 49 50 50 51 51 51 51 52 52 52 53 53 53 53 54 54 54 54 54 54 54 55 55 56 56 56 55 54 53
38 39 40 41 42 43 44 45 46 47 48 48 48 48 49 49 50 50 51 51 51 51 51 52 52 52 53 53 54 55 55 55 55 55 54 54 55 56 56 56 56 56 55
39 40 41 43 44 45 45 45 46 47 48 49 49 48 49 49 49 49 50 51 51 51 51 52 53 54 54 54 54 55 56 56 56 56 55 55 56 56 56 57 57 58 57
39 41 42 43 44 45 46 46 47 47 48 48 48 48 48 48 48 48 49 50 51 51 51 51 52 53 54 55 55 55 56 56 57 56 56 56 56 56 57 57 58 58 58
39 40 41 43 44 45 46 46 46 47 47 47 47 47 47 48 48 48 48 48 49 50 50 51 52 53 54 55 56 56 56 56 56 56 56 56 55 56 56 57 58 59 59
39 40 40 42 43 44 44 44 44 45 45 46 46 46 47 47 47 46 47 48 49 49 50 51 51 51 51 52 54 55 56 56 56 56 56 56 56 56 57 57 58 58 58
39 40 40 41 43 43 43 43 43 43 44 45 45 46 47 47 48 48 47 47 48 49 49 50 50 50 50 51 52 53 54 55 56 57 57 57 56 57 57 58 58 58 58
40 41 42 42 42 43 43 42 43 43 43 44 44 45 46 46 47 48 48 47 47 48 48 49 49 50 50 51 51 52 53 54 55 56 56 57 57 57 57 58 58 59 59
42 42 43 42 42 43 43 43 43 43 43 44 44 44 44 44 45 46 47 47 47 47 46 47 47 48 49 50 51 52 52 53 54 54 54 55 56 57 57 58 58 59 60
42 42 43 43 43 43 43 43 43 43 43 43 43 43 43 43 43 44 45 46 45 45 45 45 45 46 48 48 49 50 50 51 52 52 52 53 54 55 56 57 57 59 60
42 42 42 42 43 43 43 43 43 43 43 42 42 42 42 42 42 43 44 44 44 44 44 44 44 45 46 47 47 48 49 50 50 51 51 51 52 53 54 55 56 57 58
42 42 43 43 43 43 43 42 43 42 42 42 41 41 40 41 41 42 42 42 43 44 44 44 44 44 45 46 47 47 47 48 49 50 51 51 51 52 52 53 54 55 56
42 43 43 43 43 43 43 42 41 41 41 41 40 40 39 40 40 40 40 41 42 42 43 43 44 44 44 45 45 46 47 48 49 50 51 51 51 51 51 52 53 54 55
43 43 43 43 43 42 41 41 40 40 39 39 39 38 39 39 39 39 39 40 40 41 41 42 43 44 44 44 44 44 45 46 47 47 48 49 50 50 50 51 52 53 53
42 42 42 42 42 41 40 39 38 38 38 37 37 38 38 39 38 39 39 39 39 39 40 40 41 42 43 43 43 43 42 43 43 44 45 47 48 49 49 50 51 51 52
42 42 41 41 41 41 40 39 37 37 36 36 36 37 37 37 38 38 38 37 37 37 38 38 38 40 40 41 41 42 41 40 41 42 43 44 46 47 49 49 48 48 48
42 41 40 40 40 39 38 37 36 36 34 33 34 34 35 34 34 34 34 34 35 35 35 35 35 36 37 39 40 39 39 39 39 39 40 41 42 43 45 46 46 45 45
41 40 39 39 38 37 36 35 35 34 32 30 31 32 32 31 31 32 32 32 32 33 33 33 33 34 35 35 35 36 37 38 37 37 37 38 38 39 40 41 42 43 44
40 39 39 38 37 37 36 35 34 33 31 29 29 29 29 29 29 30 31 31 31 31 31 32 32 32 32 32 33 33 35 35 35 35 35 35 36 37 38 39 40 41 41
39 38 38 38 37 37 35 34 33 31 30 28 28 28 28 28 28 29 30 30 30 30 30 30 30 30 30 31 31 32 32 32 32 32 32 33 33 34 35 36 37 39 40
38 38 37 37 37 36 35 33 31 30 28 28 28 28 28 28 28 28 28 29 29 29 30 29 28 28 28 29 30 30 31 31 31 32 32 32 32 33 33 34 35 37 38
37 37 37 36 35 34 33 32 30 29 28 27 28 27 27 27 27 27 26 27 27 28 28 28 27 28 28 28 28 29 30 30 30 31 32 32 32 32 33 34 34 35 36
Wind_Direction
276 275 273 271 271 269 268 267 266 266 266 265 265 263 263 262 261 260 261 261 261 261 261 260 259 257 257 255 255 254 253 252 251 250 250 249 248 248 249 249 249 249 249
277 275 274 273 271 271 269 268 268 267 267 267 266 265 264 263 262 261 261 261 261 260 261 261 259 259 257 255 255 255 254 253 251 250 249 249 248 248 248 249 249 249 249
278 277 276 275 273 272 271 270 269 268 269 268 268 266 265 265 263 262 262 262 261 261 260 259 259 258 258 257 255 255 254 253 252 251 249 249 248 248 248 248 248 248 248
279 278 277 276 275 274 273 272 271 270 270 269 268 267 266 264 263 263 263 262 261 260 260 259 258 258 258 257 255 255 254 253 252 252 251 250 250 249 248 248 248 248 248
281 279 278 278 277 276 275 274 273 273 272 270 269 268 268 267 265 263 262 261 261 260 259 259 259 258 258 257 256 255 254 254 253 253 252 251 251 251 250 249 248 248 248
284 282 280 280 279 278 278 277 276 275 274 272 270 269 269 268 267 264 261 261 260 259 258 258 258 258 258 258 256 256 255 255 254 254 253 253 252 251 250 250 249 249 248
286 283 283 282 281 280 280 279 277 276 275 273 272 270 270 269 267 264 262 261 260 259 258 258 258 258 258 258 257 256 256 256 255 254 253 253 253 252 251 250 249 249 249
287 285 284 284 283 282 281 280 278 276 275 274 272 271 271 270 267 265 263 261 260 259 259 258 258 258 257 257 257 256 256 255 255 254 254 253 253 252 252 251 250 249 249
289 288 287 286 285 283 283 282 279 276 275 274 273 271 271 270 268 266 264 262 261 260 259 259 258 258 258 257 256 256 255 254 254 253 253 253 252 252 251 251 250 250 249
291 289 289 288 287 286 284 283 282 278 276 274 273 272 270 269 268 267 265 264 262 261 261 260 259 259 258 257 257 256 256 255 254 253 253 253 252 252 251 251 250 250 250
293 291 291 290 289 289 287 285 283 280 277 275 274 272 271 270 268 267 266 265 264 263 262 262 260 259 257 257 257 256 256 256 255 254 254 253 252 252 251 251 250 250 249
294 294 293 293 292 291 290 288 285 282 279 277 275 273 272 270 269 268 266 266 265 263 263 262 261 260 258 258 259 258 257 256 256 255 254 253 252 252 251 251 250 250 249
295 295 294 295 295 293 291 289 288 285 281 279 277 274 272 271 269 268 266 266 265 264 263 261 260 259 259 258 259 259 259 258 256 255 254 253 252 252 251 251 250 250 249
297 296 297 296 295 294 292 291 289 287 283 280 278 275 273 272 269 268 268 267 265 264 262 262 261 259 258 258 258 259 258 258 256 255 255 254 253 252 251 251 250 249 248
298 298 297 297 295 295 293 291 289 287 284 280 278 276 274 272 271 269 268 267 265 264 264 262 261 260 259 259 260 259 259 257 256 255 254 254 254 253 252 251 250 249 248
300 299 299 298 297 295 294 293 290 287 285 282 279 276 274 273 271 270 269 267 266 264 264 263 261 261 260 260 260 259 259 258 256 255 254 253 253 253 253 252 250 249 248
302 302 301 299 298 297 295 293 290 287 284 282 279 277 275 273 272 271 271 269 267 265 264 263 261 260 260 260 259 259 259 258 257 256 255 253 253 253 253 252 251 250 249
303 304 302 301 299 297 296 296 292 288 286 283 280 279 276 275 275 274 273 271 269 266 265 263 262 261 261 260 259 259 259 259 257 255 254 253 252 252 252 252 251 250 249
303 304 304 303 301 299 297 297 295 291 288 284 281 280 278 276 275 275 274 272 271 268 267 264 262 262 261 260 259 258 259 258 256 255 254 253 252 251 251 251 251 251 249
304 304 304 304 302 300 298 297 296 294 290 286 283 281 280 277 275 274 273 272 271 270 268 266 265 263 262 259 258 258 257 257 255 255 254 253 252 250 250 250 249 248 247
304 304 304 304 303 301 299 299 297 296 292 287 285 283 281 279 277 275 273 272 272 270 269 267 265 264 262 260 259 257 258 258 257 254 253 252 252 251 250 249 247 246 246
305 304 303 304 304 302 301 300 299 298 295 290 287 286 284 281 279 277 274 274 273 271 270 268 266 265 263 262 259 258 258 258 258 256 254 252 251 250 248 247 245 244 244
305 304 303 304 304 303 302 301 300 299 296 294 292 290 286 283 281 278 275 274 273 272 271 269 266 265 262 260 258 258 257 257 257 257 256 254 252 249 247 246 245 244 244
305 304 304 304 303 303 302 302 301 299 297 295 294 293 289 284 281 279 276 274 273 272 271 270 266 263 261 260 259 259 258 258 257 256 255 254 251 249 248 247 245 245 245
305 304 304 304 304 303 302 301 301 300 298 296 295 293 290 287 284 281 278 275 273 272 271 269 265 261 259 259 258 257 258 257 256 255 254 253 251 249 248 248 247 246 246
305 305 305 305 304 304 303 302 300 299 298 296 295 294 292 289 285 283 281 277 273 270 270 267 264 261 259 257 257 257 257 256 256 254 253 253 251 250 249 249 248 247 247
Height
5713 5712 5710 5709 5709 5708 5707 5706 5705 5705 5705 5705 5705 5705 5705 5706 5707 5707 5708 5709 5710 5711 5712 5713 5714 5716 5718 5719 5721 5723 5725 5727 5730 5733 5736 5739 5742 5745 5748 5751 5754 5757 5760
5703 5701 5699 5698 5697 5696 5695 5694 5693 5693 5692 5692 5692 5692 5692 5693 5693 5694 5694 5695 5696 5697 5698 5699 5700 5702 5704 5706 5708 5710 5712 5714 5716 5719 5722 5726 5730 5733 5736 5739 5742 5745 5748
5692 5691 5689 5687 5685 5684 5683 5682 5681 5680 5679 5679 5679 5678 5678 5679 5680 5680 5680 5680 5681 5682 5683 5685 5686 5688 5690 5692 5694 5696 5698 5701 5703 5705 5709 5712 5716 5720 5723 5726 5729 5733 5736
5682 5680 5678 5676 5674 5672 5671 5669 5668 5667 5666 5665 5665 5665 5665 5665 5665 5665 5666 5666 5666 5667 5668 5670 5672 5673 5675 5677 5680 5682 5684 5686 5689 5692 5694 5698 5702 5705 5710 5713 5716 5720 5724
5671 5669 5667 5665 5662 5660 5659 5657 5656 5654 5653 5652 5651 5651 5650 5650 5650 5651 5651 5651 5652 5653 5654 5656 5657 5659 5661 5663 5665 5667 5670 5672 5675 5678 5680 5683 5687 5690 5695 5699 5703 5706 5710
5660 5658 5655 5653 5650 5648 5646 5644 5642 5641 5639 5638 5637 5636 5636 5636 5636 5636 5636 5637 5638 5639 5640 5641 5643 5645 5646 5649 5651 5653 5655 5657 5660 5663 5666 5668 5672 5676 5679 5684 5688 5692 5696
5649 5646 5643 5641 5638 5635 5633 5630 5628 5627 5625 5624 5623 5622 5621 5621 5621 5621 5622 5623 5624 5625 5626 5627 5628 5630 5632 5634 5636 5638 5640 5643 5645 5648 5651 5653 5657 5660 5664 5668 5673 5677 5681
5638 5635 5631 5628 5625 5622 5620 5617 5615 5613 5611 5610 5609 5608 5607 5607 5607 5607 5607 5608 5609 5610 5611 5613 5614 5615 5617 5619 5621 5623 5625 5627 5630 5632 5635 5638 5641 5644 5648 5652 5656 5661 5666
5627 5623 5620 5616 5613 5610 5607 5604 5601 5600 5598 5596 5595 5594 5593 5593 5593 5593 5593 5593 5594 5595 5596 5597 5599 5600 5602 5603 5605 5608 5610 5612 5615 5617 5620 5623 5626 5629 5632 5636 5640 5645 5650
5616 5612 5608 5605 5601 5598 5594 5591 5588 5586 5584 5583 5582 5581 5580 5579 5578 5578 5578 5578 5579 5580 5581 5582 5583 5585 5586 5588 5589 5591 5594 5596 5599 5601 5604 5608 5610 5613 5616 5620 5624 5628 5633
5605 5601 5597 5593 5590 5586 5582 5579 5576 5573 5571 5569 5568 5567 5566 5565 5564 5564 5564 5564 5564 5565 5566 5567 5568 5570 5571 5572 5574 5576 5578 5580 5582 5585 5588 5592 5594 5597 5601 5604 5608 5612 5617
5595 5590 5586 5582 5578 5574 5570 5567 5563 5561 5558 5556 5554 5553 5552 5550 5550 5549 5549 5549 5549 5550 5550 5552 5553 5554 5556 5557 5558 5560 5562 5564 5567 5569 5572 5575 5578 5581 5584 5588 5592 5596 5600
5584 5580 5575 5571 5567 5562 5559 5555 5551 5548 5545 5543 5541 5539 5538 5536 5536 5535 5535 5535 5535 5536 5536 5537 5538 5539 5541 5542 5543 5545 5547 5549 5551 5553 5556 5559 5562 5565 5568 5571 5575 5580 5584
5574 5569 5564 5560 5555 5551 5547 5543 5539 5535 5532 5530 5527 5526 5524 5523 5522 5522 5521 5521 5521 5522 5522 5523 5524 5525 5526 5527 5529 5530 5532 5533 5535 5538 5540 5543 5546 5549 5552 5555 5559 5563 5567
5563 5558 5553 5548 5544 5539 5534 5530 5526 5523 5519 5517 5515 5513 5511 5510 5509 5508 5508 5507 5507 5508 5508 5509 5510 5511 5512 5513 5514 5515 5517 5518 5521 5523 5525 5528 5531 5534 5536 5540 5543 5547 5551
5552 5547 5542 5537 5532 5527 5522 5518 5514 5510 5507 5504 5502 5500 5499 5498 5496 5495 5494 5494 5494 5494 5495 5495 5496 5497 5498 5499 5499 5500 5502 5504 5506 5508 5511 5513 5516 5518 5521 5524 5528 5531 5535
5541 5536 5531 5525 5520 5515 5510 5506 5501 5498 5494 5492 5489 5488 5486 5485 5484 5483 5482 5481 5481 5481 5481 5481 5482 5483 5484 5484 5485 5486 5487 5489 5491 5493 5496 5498 5501 5503 5506 5510 5513 5516 5520
5531 5525 5519 5514 5508 5503 5498 5493 5489 5485 5482 5479 5477 5475 5474 5473 5471 5470 5469 5468 5468 5468 5468 5468 5468 5469 5470 5470 5471 5472 5473 5474 5476 5478 5480 5483 5487 5489 5492 5495 5498 5502 5506
5520 5514 5508 5503 5497 5492 5487 5482 5478 5474 5470 5467 5465 5464 5462 5460 5459 5458 5457 5456 5455 5455 5455 5455 5455 5456 5457 5457 5457 5458 5459 5460 5462 5464 5466 5468 5472 5475 5478 5480 5484 5488 5492
5509 5504 5498 5492 5486 5481 5476 5471 5467 5463 5459 5456 5454 5452 5450 5449 5447 5446 5445 5444 5444 5443 5443 5443 5443 5443 5444 5444 5445 5445 5447 5449 5450 5451 5453 5455 5457 5460 5462 5465 5469 5474 5478
5499 5493 5487 5481 5476 5471 5466 5461 5457 5453 5449 5446 5444 5441 5440 5438 5436 5435 5434 5433 5432 5432 5432 5431 5431 5431 5432 5433 5433 5434 5435 5436 5437 5439 5440 5442 5444 5446 5449 5452 5456 5461 5465
5489 5483 5477 5472 5466 5461 5456 5452 5447 5443 5439 5436 5434 5432 5430 5428 5426 5425 5424 5423 5422 5422 5421 5421 5421 5421 5421 5421 5422 5423 5424 5425 5426 5427 5429 5430 5432 5434 5436 5439 5443 5448 5452
5479 5473 5468 5463 5457 5452 5447 5443 5438 5434 5431 5428 5425 5423 5421 5419 5417 5416 5415 5414 5412 5412 5411 5411 5411 5411 5411 5411 5412 5413 5414 5414 5415 5417 5418 5420 5421 5423 5425 5428 5432 5436 5439
5469 5464 5459 5454 5449 5443 5438 5434 5430 5426 5423 5420 5417 5414 5412 5410 5408 5407 5405 5404 5403 5402 5402 5401 5401 5401 5402 5402 5403 5404 5404 5405 5406 5407 5408 5409 5411 5413 5415 5418 5421 5424 5428
5460 5455 5450 5445 5440 5435 5430 5426 5422 5418 5415 5412 5409 5407 5404 5402 5400 5398 5396 5395 5394 5393 5393 5392 5392 5392 5393 5393 5393 5394 5395 5396 5397 5398 5399 5400 5402 5404 5406 5409 5411 5415 5418
5450 5445 5440 5435 5431 5426 5421 5418 5414 5411 5408 5405 5402 5399 5396 5394 5392 5390 5388 5386 5385 5384 5383 5383 5383 5383 5384 5384 5384 5385 5386 5387 5388 5389 5390 5391 5393 5395 5397 5400 5402 5405 5408